Wind_Speed
20 21 21 21 21 20 21 21 19 17 15 15 15 14 13 12 11 11 10 10 12 12 12 12 11 11 11 10 9 9 9 9 8 8 7 8 8 8 8 9 9 10 10 10 11 11 11 11 11
19 20 21 22 22 21 21 21 19 16 16 15 15 14 13 11 10 9 10 10 12 12 11 11 11 10 10 10 9 9 9 8 8 8 7 7 7 8 8 8 8 9 9 10 10 10 11 11 12
18 19 20 22 22 22 22 22 20 17 16 15 15 14 12 10 10 9 9 10 11 12 11 11 10 10 10 10 9 9 9 8 8 8 7 7 8 8 8 9 9 9 9 9 10 10 11 11 11
17 19 20 21 22 23 23 22 21 18 17 16 16 14 12 11 12 11 10 11 12 12 11 11 10 10 10 10 9 9 9 8 8 8 8 8 8 8 8 9 9 9 9 9 9 10 10 10 11
16 18 19 20 21 22 23 22 21 19 18 18 17 15 14 13 12 11 11 12 12 11 11 10 10 10 9 9 9 9 9 8 7 8 8 8 8 9 9 8 8 8 8 8 8 9 10 10 10
14 17 18 20 20 20 22 21 20 19 19 19 18 17 16 14 13 12 12 12 11 11 10 10 9 9 9 9 9 8 9 8 7 7 8 8 8 8 8 8 7 7 8 8 8 9 9 9 9
14 15 17 18 19 19 20 20 20 21 21 20 18 17 16 16 14 13 12 11 11 10 10 9 9 9 9 9 9 9 8 8 7 8 8 7 7 8 8 7 7 7 7 7 8 8 9 9 8
13 14 15 17 17 18 19 19 19 20 20 20 20 19 18 16 14 14 13 12 11 10 10 10 9 9 9 9 9 8 8 7 7 7 7 7 7 7 8 7 8 8 8 8 8 8 8 8 8
11 11 14 15 16 16 18 19 19 20 20 20 21 21 19 18 15 14 13 13 12 11 11 10 9 9 9 9 9 8 7 7 7 7 7 7 6 7 7 7 8 8 8 8 8 8 8 8 7
9 10 13 14 15 16 17 18 19 19 20 20 21 21 20 18 16 14 15 13 12 11 11 10 10 9 10 9 8 8 7 6 7 7 7 7 7 7 7 7 7 7 7 7 7 7 7 7 7
9 9 11 13 15 16 17 18 18 19 20 20 20 21 20 19 16 14 15 14 13 12 11 11 11 10 10 10 9 9 8 7 7 7 7 7 7 7 7 6 6 6 6 6 6 6 6 6 5
7 8 9 12 13 14 15 17 19 19 19 19 20 20 20 19 17 16 16 15 14 13 12 11 11 11 11 10 9 9 8 8 7 7 7 7 7 7 7 6 6 6 6 6 5 5 5 5 4
6 6 7 9 12 13 15 15 17 17 18 19 19 20 20 18 17 17 16 15 14 13 12 11 11 11 11 10 10 10 9 8 8 7 7 6 7 7 6 5 5 5 4 4 4 4 3 3 2
5 4 4 7 9 11 13 14 15 17 17 18 18 19 19 18 17 17 16 15 14 14 13 12 11 11 11 10 9 9 8 8 8 7 7 7 6 6 5 5 4 4 3 3 2 2 2 2 1
4 3 3 5 7 8 11 13 14 15 17 17 17 18 18 17 17 17 16 15 14 13 12 11 11 11 11 10 9 9 8 7 7 7 6 6 6 6 5 5 4 3 2 2 2 1 1 1 0
5 5 3 3 5 7 9 12 13 14 16 16 17 17 17 17 17 16 15 15 14 13 11 10 10 10 10 9 8 8 7 6 6 6 6 5 5 4 4 4 4 3 1 1 0 0 1 1 1
6 6 3 1 4 6 8 11 13 13 14 15 16 16 16 16 16 16 15 14 14 13 12 11 10 9 9 8 7 7 6 5 5 4 4 4 3 3 3 3 3 2 2 1 1 1 2 2 3
7 5 2 2 3 4 7 10 11 11 13 14 15 15 15 14 15 15 15 14 13 13 12 11 9 9 8 7 6 6 5 4 4 3 3 3 3 3 2 2 2 2 2 2 2 2 3 4 5
7 4 2 1 2 5 8 9 9 9 11 12 13 13 13 14 14 14 15 14 13 13 12 11 9 8 7 7 6 5 4 4 3 3 3 3 2 2 2 2 3 3 3 3 3 4 5 5 6
8 6 4 2 3 5 7 7 7 8 9 11 11 11 13 13 12 13 14 15 13 13 12 11 9 8 7 7 6 6 5 4 3 2 2 3 3 3 3 3 3 4 5 5 5 6 7 8 8
12 9 8 6 6 6 6 5 7 7 8 10 10 10 12 11 10 12 13 13 13 12 12 11 10 8 7 6 7 6 5 4 3 2 3 3 3 4 4 5 5 6 6 7 7 8 8 9 9
13 12 11 10 8 7 7 6 6 7 8 9 10 10 11 12 12 11 12 13 12 11 11 10 9 8 7 7 6 6 5 4 3 3 4 4 5 5 6 6 6 7 7 7 7 7 8 9 9
14 13 13 12 10 9 10 10 8 7 7 9 9 10 11 13 12 11 12 12 11 11 11 10 10 8 8 7 7 6 6 4 4 4 4 5 5 6 6 7 7 7 7 8 8 7 8 8 8
16 16 16 15 13 11 10 11 10 8 7 9 9 10 12 13 12 11 11 11 10 10 10 10 10 9 8 7 7 7 6 5 4 4 4 5 5 6 7 7 8 9 8 8 8 8 8 8 8
19 19 19 17 15 11 10 11 10 7 8 9 10 11 12 12 12 11 10 10 10 9 10 10 10 9 8 7 7 7 6 5 5 5 5 6 6 7 7 7 8 9 8 9 9 9 9 9 9
20 20 19 18 15 12 11 10 9 7 8 9 11 11 13 12 12 11 10 10 10 10 9 9 9 9 8 7 7 7 6 6 6 6 6 7 7 7 7 7 8 8 8 9 9 8 9 9 9
22 21 19 18 16 15 13 11 10 8 8 9 11 13 13 12 11 11 10 10 11 10 10 10 9 9 8 7 7 7 7 6 7 6 7 6 6 6 6 7 8 8 8 8 7 8 9 9 9
23 21 21 20 19 18 16 14 11 9 9 10 12 13 13 12 11 10 10 10 10 11 10 10 10 9 8 7 7 8 7 7 7 7 7 6 6 6 6 7 7 7 7 7 7 7 8 8 9
24 23 22 22 21 20 18 15 12 11 10 11 12 13 13 13 12 11 10 9 9 10 10 10 10 9 9 8 8 8 8 7 7 7 7 6 6 7 6 7 7 7 7 7 7 7 8 9 9
24 24 22 23 23 22 21 17 13 12 11 11 12 14 14 12 10 9 9 9 10 10 10 10 10 9 9 9 8 8 8 8 8 8 8 8 7 7 7 8 8 7 7 8 8 9 9 10 10
Wind_Direction
64 56 51 48 45 44 49 52 51 48 47 46 44 44 45 47 52 59 59 62 65 68 71 71 70 71 69 69 67 58 59 63 67 76 83 87 92 97 104 104 107 110 110 106 106 108 108 107 107
63 56 50 47 43 43 46 50 50 45 44 44 43 44 46 48 49 56 61 62 68 70 70 70 69 68 65 66 62 59 62 65 69 76 79 80 90 96 102 103 107 110 109 105 104 106 108 106 106
65 57 50 46 42 42 44 47 47 45 44 44 42 42 44 46 51 54 60 64 68 69 69 69 68 66 63 60 57 59 62 65 70 71 75 79 86 93 97 103 107 109 109 105 103 105 106 105 105
66 60 49 44 42 44 43 46 46 44 43 44 44 43 43 46 54 56 61 65 66 66 67 66 64 62 61 60 60 62 63 65 69 71 73 81 85 88 96 102 105 106 106 108 103 105 107 105 106
67 60 50 44 44 44 43 43 43 43 41 44 44 43 46 47 52 57 62 65 66 68 67 64 63 60 59 62 63 65 66 68 69 70 75 80 85 91 97 100 100 101 104 107 105 105 106 106 107
59 57 52 44 42 44 43 42 40 40 39 42 43 43 47 47 51 55 60 65 67 66 64 64 62 58 58 59 63 65 66 70 70 70 74 78 84 90 95 97 96 97 98 103 106 107 106 106 108
56 56 51 44 39 40 41 41 40 39 39 41 42 42 43 46 50 54 59 65 69 64 62 62 60 59 59 60 62 61 65 71 71 69 73 78 83 88 93 94 94 95 98 101 106 107 108 107 110
61 53 48 41 37 39 41 41 40 40 39 40 42 42 43 47 51 55 59 65 64 62 60 60 59 61 61 61 62 62 65 70 71 72 76 80 82 88 90 93 95 96 97 99 101 102 106 109 110
55 49 42 35 34 39 41 42 40 41 38 39 40 40 42 48 52 55 58 58 58 58 59 58 60 62 63 64 65 67 65 71 75 76 79 81 83 87 93 96 95 94 98 101 102 103 107 110 109
55 46 44 37 37 40 41 41 41 39 38 38 38 38 40 45 52 58 57 55 55 58 61 61 63 65 65 65 64 67 66 72 79 79 81 85 87 88 92 95 93 92 97 103 105 105 108 110 108
67 48 38 32 33 40 41 41 40 39 39 38 38 38 39 43 50 57 59 57 58 64 66 65 64 64 64 63 62 63 67 71 80 78 82 85 85 89 89 92 91 90 93 100 104 110 112 112 109
79 51 39 33 33 37 39 35 35 39 38 38 39 39 39 42 48 56 58 59 61 66 68 65 64 65 65 65 64 63 68 78 77 81 87 84 83 86 88 88 89 89 87 93 99 108 115 110 105
92 59 37 32 30 32 34 32 30 34 36 36 38 38 38 41 46 50 52 56 59 65 69 70 68 68 66 65 62 65 72 77 74 77 85 84 84 83 84 82 81 88 87 88 92 94 99 104 101
120 89 44 33 30 32 31 32 30 29 30 35 37 36 36 39 44 48 49 53 58 62 65 68 68 67 65 66 66 69 70 73 75 78 79 83 87 84 80 77 72 79 81 93 97 96 87 80 109
142 146 73 33 25 33 31 29 28 32 31 33 36 35 36 39 42 45 45 47 52 57 58 60 64 63 62 64 66 66 70 73 73 74 77 78 82 79 78 74 72 77 80 85 88 93 82 48 275
166 154 130 41 19 23 22 22 25 29 31 31 32 33 35 38 40 42 43 42 46 50 52 54 58 61 62 62 63 63 63 63 66 69 70 68 71 70 77 74 67 63 67 101 98 208 264 310 289
173 153 148 26 20 23 15 13 18 23 27 27 28 30 34 35 36 38 40 41 43 45 47 47 52 56 60 59 60 61 57 56 56 59 58 56 54 59 64 58 46 43 38 28 352 285 282 285 280
177 174 190 292 352 7 359 359 11 17 22 24 24 26 30 34 35 36 37 38 39 41 41 41 46 51 52 52 53 53 45 47 47 46 38 38 34 44 52 42 27 21 6 345 332 296 284 281 274
187 204 232 296 345 338 343 346 2 11 15 20 20 20 24 29 31 33 34 33 33 34 36 38 44 43 40 39 36 32 24 23 24 25 21 9 4 3 7 352 350 341 327 319 307 293 284 285 281
200 204 204 213 283 310 328 332 348 360 4 12 15 18 18 21 23 26 27 27 27 28 31 35 37 35 32 28 23 21 19 11 3 348 341 328 332 333 330 324 321 317 310 302 297 292 287 284 281
200 205 210 218 247 278 297 308 338 353 358 2 10 12 12 13 15 18 18 19 22 24 25 28 28 27 26 24 22 16 9 4 349 327 315 309 305 303 305 306 304 305 303 304 297 289 285 283 278
204 208 213 223 241 262 270 282 318 332 345 357 3 2 1 7 12 11 10 10 16 20 22 22 19 18 19 18 13 10 10 4 350 335 318 310 298 292 293 294 298 301 303 307 307 299 291 285 283
205 210 215 220 231 249 258 271 290 312 334 344 352 359 2 9 8 9 7 4 9 14 15 16 15 13 13 11 11 7 0 349 337 327 317 310 299 293 291 293 297 299 300 303 304 304 300 294 292
210 212 213 216 226 240 249 259 277 301 328 337 343 351 354 359 0 3 1 359 4 6 7 10 11 10 8 8 10 8 359 346 337 329 320 312 305 299 292 291 293 295 297 297 297 300 302 297 298
215 217 217 219 225 234 239 253 269 293 318 324 337 346 348 350 354 356 352 353 356 359 5 7 7 11 8 8 8 3 358 350 342 330 323 320 312 305 296 295 298 298 299 299 298 298 298 301 301
221 223 223 223 224 229 233 249 267 289 313 323 331 339 344 342 348 351 348 349 353 356 1 2 3 6 8 8 6 2 355 348 341 334 331 328 323 316 306 303 302 300 299 299 299 303 305 304 301
222 225 227 226 226 227 227 237 250 278 303 321 329 335 336 334 339 347 348 347 350 355 356 2 0 1 5 4 2 358 353 347 347 339 336 337 333 329 318 309 303 300 300 299 296 298 304 302 302
226 228 228 228 225 225 226 235 251 270 289 304 315 326 328 330 329 336 341 344 348 349 350 353 357 358 359 357 353 350 350 346 341 341 339 337 336 333 328 323 317 315 309 304 302 302 306 304 305
226 228 231 229 227 225 227 236 246 261 279 296 307 318 323 323 322 324 331 340 344 345 348 351 354 353 353 353 351 348 349 349 344 338 334 333 336 334 327 328 329 323 316 310 308 311 311 309 308
226 229 233 233 227 227 232 235 241 252 266 283 299 308 315 318 317 320 327 333 338 340 345 349 350 352 351 349 346 345 345 345 342 338 339 337 334 334 333 331 329 327 322 316 310 307 306 309 309
Height
5917 5916 5915 5915 5914 5912 5910 5909 5908 5907 5906 5904 5903 5902 5902 5901 5900 5901 5898 5896 5895 5894 5894 5894 5893 5893 5892 5891 5891 5890 5890 5889 5888 5888 5888 5887 5887 5886 5886 5886 5886 5886 5886 5886 5886 5886 5886 5886 5886
5920 5919 5919 5917 5915 5913 5912 5912 5911 5909 5908 5906 5905 5904 5903 5902 5901 5900 5899 5897 5896 5896 5896 5895 5895 5894 5894 5893 5892 5892 5892 5891 5890 5890 5889 5889 5888 5888 5888 5888 5887 5887 5887 5887 5887 5888 5888 5888 5888
5922 5921 5921 5919 5917 5916 5915 5914 5913 5911 5910 5908 5907 5907 5905 5903 5901 5900 5900 5899 5898 5897 5897 5897 5896 5896 5896 5895 5895 5894 5894 5893 5893 5892 5891 5891 5890 5890 5890 5890 5889 5889 5889 5889 5889 5889 5889 5890 5890
5925 5924 5923 5922 5920 5919 5917 5916 5915 5913 5912 5910 5909 5909 5906 5904 5903 5902 5901 5900 5899 5899 5899 5899 5898 5898 5898 5897 5896 5896 5895 5895 5894 5894 5893 5893 5892 5892 5892 5892 5892 5891 5891 5891 5891 5891 5891 5891 5891
5928 5926 5925 5923 5922 5921 5920 5918 5918 5916 5914 5912 5911 5910 5908 5906 5904 5903 5902 5901 5901 5901 5901 5900 5900 5899 5899 5898 5898 5898 5897 5896 5896 5896 5895 5895 5894 5894 5893 5893 5893 5893 5893 5893 5893 5893 5893 5893 5893
5931 5928 5928 5926 5924 5923 5923 5922 5921 5919 5916 5914 5912 5911 5910 5908 5905 5904 5903 5903 5903 5903 5902 5902 5901 5901 5900 5900 5899 5899 5898 5898 5898 5897 5897 5896 5896 5896 5895 5895 5895 5895 5895 5895 5895 5895 5895 5895 5895
5933 5931 5929 5929 5927 5926 5926 5925 5923 5921 5919 5916 5914 5913 5911 5909 5907 5906 5905 5904 5904 5904 5904 5903 5902 5902 5902 5901 5900 5900 5899 5899 5899 5899 5898 5898 5898 5897 5897 5897 5896 5896 5896 5896 5896 5896 5897 5897 5897
5934 5934 5932 5931 5930 5929 5928 5927 5925 5923 5921 5919 5916 5915 5913 5912 5909 5907 5907 5906 5906 5905 5905 5904 5903 5903 5903 5902 5902 5901 5901 5900 5900 5900 5900 5899 5899 5899 5898 5898 5898 5898 5898 5898 5898 5898 5898 5898 5898
5936 5937 5934 5934 5933 5931 5930 5928 5926 5924 5923 5921 5918 5916 5915 5913 5911 5909 5908 5908 5907 5906 5905 5905 5905 5904 5904 5903 5903 5902 5902 5901 5901 5901 5901 5901 5900 5900 5900 5900 5899 5899 5899 5899 5899 5899 5899 5900 5900
5938 5937 5937 5936 5936 5934 5932 5930 5928 5926 5924 5923 5921 5918 5916 5915 5913 5912 5910 5909 5908 5907 5906 5906 5905 5905 5905 5904 5904 5903 5903 5903 5902 5902 5902 5902 5901 5901 5901 5901 5901 5900 5900 5900 5900 5901 5901 5901 5901
5939 5939 5938 5937 5937 5936 5935 5933 5930 5928 5926 5925 5923 5921 5919 5916 5915 5913 5912 5911 5910 5909 5908 5907 5906 5906 5906 5905 5904 5904 5904 5904 5903 5903 5903 5903 5902 5903 5903 5902 5902 5902 5902 5902 5902 5902 5902 5902 5902
5940 5939 5939 5939 5938 5938 5937 5935 5933 5930 5929 5927 5925 5923 5921 5919 5917 5915 5914 5913 5911 5910 5910 5909 5908 5907 5907 5906 5906 5905 5905 5905 5904 5904 5904 5904 5904 5904 5904 5904 5904 5903 5903 5903 5903 5903 5903 5903 5903
5941 5941 5940 5940 5940 5939 5938 5937 5935 5933 5931 5930 5927 5926 5924 5921 5919 5917 5916 5915 5913 5912 5911 5910 5910 5909 5908 5908 5907 5906 5906 5906 5906 5905 5905 5905 5905 5905 5905 5904 5904 5904 5904 5904 5904 5904 5904 5904 5904
5942 5941 5941 5941 5941 5941 5940 5939 5938 5935 5933 5932 5930 5928 5926 5924 5921 5919 5918 5916 5915 5914 5913 5912 5911 5910 5910 5909 5909 5908 5908 5907 5907 5907 5907 5906 5906 5906 5905 5905 5905 5905 5905 5905 5905 5904 5904 5904 5904
5942 5942 5942 5942 5942 5942 5942 5941 5940 5938 5936 5934 5932 5930 5928 5926 5924 5922 5920 5918 5917 5915 5914 5914 5912 5911 5911 5910 5910 5909 5909 5909 5908 5908 5908 5907 5907 5907 5906 5906 5906 5906 5905 5905 5905 5905 5905 5904 5904
5943 5943 5943 5943 5943 5943 5944 5942 5941 5939 5938 5937 5934 5932 5930 5928 5926 5924 5922 5920 5919 5917 5916 5915 5914 5913 5912 5911 5911 5910 5910 5910 5909 5909 5908 5908 5908 5907 5907 5907 5906 5906 5906 5906 5905 5905 5905 5905 5904
5943 5943 5943 5943 5943 5943 5943 5942 5942 5941 5940 5938 5936 5934 5932 5930 5928 5926 5924 5922 5920 5918 5917 5915 5915 5914 5913 5912 5911 5911 5910 5910 5910 5909 5909 5909 5908 5908 5907 5907 5907 5906 5906 5905 5905 5905 5904 5904 5904
5942 5943 5942 5943 5942 5943 5943 5943 5943 5942 5941 5940 5938 5936 5934 5932 5930 5928 5926 5924 5922 5920 5918 5916 5915 5914 5913 5913 5912 5911 5911 5910 5910 5910 5909 5909 5908 5908 5907 5907 5907 5906 5906 5905 5905 5904 5904 5904 5903
5941 5942 5942 5942 5942 5943 5943 5943 5943 5942 5942 5940 5939 5937 5935 5933 5931 5929 5927 5926 5923 5921 5920 5918 5916 5915 5914 5913 5912 5912 5911 5910 5910 5910 5909 5909 5908 5908 5907 5907 5906 5906 5905 5905 5904 5904 5903 5903 5902
5940 5941 5942 5942 5942 5943 5943 5944 5943 5943 5942 5941 5940 5938 5936 5934 5932 5930 5928 5927 5925 5922 5921 5919 5917 5916 5914 5913 5912 5911 5911 5910 5910 5909 5909 5908 5908 5908 5907 5906 5906 5906 5905 5904 5903 5902 5902 5901 5900
5938 5940 5941 5942 5942 5942 5943 5943 5943 5943 5942 5941 5940 5939 5937 5934 5932 5930 5929 5927 5925 5923 5921 5920 5918 5916 5915 5913 5912 5911 5910 5910 5909 5909 5908 5908 5907 5907 5906 5906 5905 5905 5904 5903 5902 5901 5900 5899 5898
5936 5938 5939 5940 5940 5941 5942 5942 5942 5941 5941 5940 5940 5939 5937 5935 5933 5931 5930 5928 5925 5924 5922 5920 5918 5917 5915 5913 5912 5911 5910 5909 5909 5908 5908 5907 5906 5906 5905 5904 5904 5903 5902 5901 5900 5898 5897 5896 5895
5934 5936 5937 5938 5939 5940 5940 5940 5941 5940 5940 5940 5939 5938 5936 5935 5934 5932 5930 5928 5925 5924 5922 5920 5918 5916 5915 5913 5912 5911 5910 5909 5908 5907 5907 5906 5905 5904 5903 5903 5902 5901 5900 5899 5898 5897 5896 5894 5893
5931 5934 5935 5936 5937 5938 5939 5939 5939 5938 5939 5938 5938 5937 5936 5935 5933 5931 5930 5928 5925 5924 5922 5920 5918 5916 5915 5913 5912 5910 5909 5908 5907 5906 5905 5905 5904 5902 5902 5901 5900 5899 5898 5897 5896 5895 5894 5892 5891
5928 5931 5933 5934 5935 5936 5937 5936 5937 5937 5937 5937 5937 5936 5935 5934 5933 5931 5929 5927 5925 5923 5921 5919 5917 5916 5914 5913 5911 5910 5909 5908 5907 5905 5904 5903 5902 5901 5900 5899 5898 5897 5896 5895 5894 5892 5891 5890 5889
5925 5927 5930 5931 5933 5934 5934 5934 5936 5936 5936 5935 5935 5934 5934 5933 5932 5930 5928 5926 5925 5923 5921 5919 5917 5915 5914 5912 5911 5909 5908 5907 5906 5904 5903 5901 5900 5899 5898 5897 5896 5895 5893 5892 5891 5890 5889 5888 5886
5921 5923 5926 5928 5929 5930 5931 5932 5933 5933 5933 5933 5934 5933 5933 5932 5931 5929 5927 5926 5924 5922 5920 5918 5917 5915 5914 5912 5910 5909 5907 5906 5904 5903 5901 5900 5898 5897 5896 5895 5893 5892 5891 5890 5889 5888 5887 5885 5884
5917 5920 5922 5924 5925 5926 5928 5929 5930 5931 5932 5932 5932 5931 5931 5930 5929 5928 5926 5924 5923 5921 5920 5918 5916 5915 5913 5911 5910 5908 5906 5905 5903 5902 5900 5898 5897 5896 5894 5893 5892 5890 5889 5887 5886 5885 5884 5883 5881
5913 5915 5917 5920 5922 5924 5924 5928 5929 5929 5930 5930 5930 5930 5929 5928 5927 5926 5924 5923 5922 5920 5919 5917 5915 5914 5912 5910 5909 5907 5905 5904 5902 5900 5898 5897 5896 5894 5893 5892 5890 5888 5887 5886 5884 5883 5882 5880 5879
5908 5911 5913 5916 5918 5920 5921 5926 5926 5926 5927 5928 5928 5928 5927 5926 5924 5924 5923 5922 5921 5919 5917 5916 5915 5913 5911 5909 5908 5906 5904 5902 5901 5899 5897 5896 5894 5893 5891 5890 5888 5887 5885 5884 5883 5881 5880 5878 5877